Location: Olsztyn
(53.7767°N, 20.4765°E)
Time: 07:43:50
(UTC+01:00)

Transit 4A - Pass Details

Date: 02 October 2022
Orbit: 871 x 972 km, 66.8° (Epoch: 06 December)

Event Time Altitude Azimuth Distance (km) Brightness Sun altitude
Exits shadow 00:23:21 24° 33° (NNE) 1,805 9.7 -39.7°
Drops below altitude 10° 00:25:32 10° 39° (NE) 2,578 10.7 -39.7°
Sets 00:28:03 0° 42° (NE) 3,509 11.5 -39.7°
